Simultaneous Nadir Overpasses (SNOs) Predictions

Prediction of SNOs between TERRA and METOP-C Satellite Orbit:

Table of predicted SNOs for the next 14.0 days since TLE Epoch: 10/19/2024
Index Date (TERRA) Time (TERRA) Lat,Lon (TERRA) SZA (TERRA ) Date (METOP-C) Time (METOP-C) Lat,Lon (METOP-C) SZA (METOP-C ) Distance(km) Time Diff (sec)
1 10/20/2024 06:41:30 -69.33,-113.73 99.97 10/20/2024 06:41:20 -69.33,-113.74 99.97 0.40 10
2 10/20/2024 07:30:08 71.56, 57.16 82.12 10/20/2024 07:31:17 71.55, 57.14 82.11 0.71 69
3 10/22/2024 20:22:42 66.86,-141.74 78.69 10/22/2024 20:21:42 66.85,-141.76 78.71 1.03 60
4 10/22/2024 21:11:14 -69.69, 29.24 98.72 10/22/2024 21:11:32 -69.68, 29.20 98.73 1.63 18
5 10/25/2024 10:52:18 67.51, 1.46 80.18 10/25/2024 10:51:47 67.51, 1.43 80.18 1.71 31
6 10/25/2024 11:40:49 -70.38, 172.70 97.18 10/25/2024 11:41:36 -70.37, 172.68 97.20 0.95 47
7 10/28/2024 00:37:09 -52.28, -34.16 112.24 10/28/2024 00:35:56 -52.37, -34.80 111.93 44.77 73
8 10/28/2024 01:21:47 68.50, 145.10 81.95 10/28/2024 01:21:46 68.50, 145.09 81.95 0.52 1
9 10/28/2024 02:08:07 -77.97, -26.14 88.69 10/28/2024 02:09:21 -77.73, -25.09 88.88 36.74 74
10 10/30/2024 15:03:02 -65.74, 117.02 99.71 10/30/2024 15:02:15 -65.73, 116.98 99.70 2.35 47



Historial Predications of SNOs between TERRA and METOP-C
